Location: Austin
(30.3000°N, 97.7500°W)
Time: 03:54:34
(UTC-05:00)

Cosmos 1470 - Pass Details

Date: 01 October 2024
Orbit: 478 x 496 km, 82.5° (Epoch: 06 October)

Event Time Altitude Azimuth Distance (km) Brightness Sun altitude
Rises 20:32:56 0° 190° (S) 2,533 6.3 -17.5°
Reaches altitude 10° 20:35:02 10° 193° (SSW) 1,654 5.3 -18.0°
Maximum altitude 20:38:37 67° 276° (W) 525 2.9 -18.7°
Drops below altitude 10° 20:42:14 10° 360° (N) 1,657 5.3 -19.5°
Sets 20:44:20 0° 3° (N) 2,538 6.3 -20.0°
